This is the latest recevied weather packets stored in our database for station/object KD1KE. If no packets are shown the sender has not sent any weather packets the latest 10 day(s).
| Time | Temp. | Humidity | Pressure | Rain* | Wind** | Luminosity | Snow |
|---|---|---|---|---|---|---|---|
| 1777661561 | 14.44° C | 52% | 1005.1 hPa | 0 mm | - | - | - |
| 1777661111 | 14.44° C | 52% | 1005.2 hPa | 0 mm | - | - | - |
| 1777660902 | 14.44° C | 49% | 1005.2 hPa | 0 mm | - | - | - |
| 1777660571 | 15° C | 53% | 1005.1 hPa | 0 mm | - | - | - |
| 1777660243 | 15° C | 52% | 1005.3 hPa | 0 mm | - | - | - |
| 1777660030 | 15° C | 50% | 1005.1 hPa | 0 mm | - | - | - |
| 1777659582 | 14.44° C | 53% | 1005.2 hPa | 0 mm | - | - | - |
| 1777659491 | 14.44° C | 53% | 1005.2 hPa | 0 mm | - | - | - |
| 1777658952 | 14.44° C | 53% | 1005.3 hPa | 0 mm | - | - | - |
| 1777658921 | 14.44° C | 53% | 1005.3 hPa | 0 mm | - | - | - |
| 1777658410 | 13.89° C | 57% | 1005.2 hPa | 0 mm | - | - | - |
| 1777658262 | 13.89° C | 54% | 1005.2 hPa | 0 mm | - | - | - |
| 1777657871 | 13.89° C | 57% | 1005.2 hPa | 0 mm | - | - | - |
| 1777657601 | 13.89° C | 56% | 1005.3 hPa | 0 mm | - | - | - |
| 1777657330 | 13.89° C | 57% | 1005.3 hPa | 0 mm | - | - | - |
| 1777656942 | 13.89° C | 57% | 1005.3 hPa | 0 mm | - | - | - |
| 1777656790 | 13.89° C | 60% | 1005.2 hPa | 0 mm | - | - | - |
| 1777656282 | 13.89° C | 60% | 1005.3 hPa | 0 mm | - | - | - |
| 1777656250 | 13.33° C | 62% | 1005.2 hPa | 0 mm | - | - | - |
| 1777655711 | 12.78° C | 62% | 1005.2 hPa | 0 mm | - | - | - |
| 1777655621 | 12.78° C | 62% | 1005.3 hPa | 0 mm | - | - | - |
| 1777655171 | 12.78° C | 65% | 1005.3 hPa | 0 mm | - | - | - |
| 1777654962 | 12.78° C | 63% | 1005.3 hPa | 0 mm | - | - | - |
| 1777654630 | 12.22° C | 64% | 1005.4 hPa | 0 mm | - | - | - |
| 1777654300 | 12.78° C | 65% | 1005.4 hPa | 0 mm | - | - | - |
* Rain latest hour (hover to see other rain measurements)
** Current wind speed in m/s (hover to see current wind gust speed)